Flag for Belgium Weather past 2 weeks in Ghent, Belgium

Now
41 °F

Quite cool.


Feels Like: 38 °F
Forecast: 42 / 49 °F
Wind: 5 mph from Southwest

Location: Munte

Current Time: Dec 20, 2014 at 2:39:36 AM

Latest Report: Dec 20, 2014 at 2:00 AM


Visibility: 13 mi

Pressure: 30.23 "Hg

Humidity: 82%

Dew point: 36 °F

Location of GhentLocation

Historic Weather in Ghent — Graph

°F

Ghent temperature yesterday

Maximum temperature yesterday: 54 °F (at 3:00 AM)
Minimum temperature yesterday: 41 °F (at 9:00 PM)
Average temperature yesterday: 49 °F

Past Weeks' High & Low Weather Summary

 TemperatureHumidityPressure
High55 °F (Dec 18, 2:00 PM)99% (Dec 16, 7:00 AM)30.40 "Hg (Dec 16, 7:00 AM)
Low32 °F (Dec 14, 8:00 AM)59% (Dec 10, 3:00 PM)29.41 "Hg (Dec 12, 10:00 AM)
Average42 °F89%29.98 "Hg
* Reported Dec 5 1:00 AM — Dec 20 1:00 AM, Ghent, Weather by CustomWeather, © 2014

Note: Actual official high and low records may vary slightly from our data, if they occured in-between our weather recording intervals... More about our weather records

Advertising

Ghent weather history for previous 24 hours

 ConditionsComfort  
Time TempWeatherWind HumidityBarometerVisibility
1:00 AM
Dec 20
42 °FQuite cool.5 mph81%30.22 "Hg15 mi
12:00 AM42 °FQuite cool.5 mph81%30.21 "Hg17 mi
11:00 PM
Dec 19
41 °FQuite cool.5 mph81%30.19 "Hg19 mi
10:00 PM42 °FQuite cool.5 mph80%30.19 "Hg19 mi
9:00 PM41 °FQuite cool.3 mph82%30.16 "Hg14 mi
8:00 PM42 °FQuite cool.3 mph83%30.14 "Hg12 mi
7:00 PM43 °FQuite cool.2 mph78%30.11 "Hg17 mi
6:00 PM43 °FQuite cool.2 mph77%30.08 "Hg14 mi
5:00 PM45 °FQuite cool.2 mph74%30.05 "Hg19 mi
4:00 PM47 °FCool.3 mph79%30.02 "Hg13 mi
3:00 PM49 °FCool.5 mph70%30.00 "Hg25 mi
2:00 PM49 °FCool.3 mph89%29.97 "Hg17 mi
1:00 PM48 °FCool.2 mph94%29.95 "Hg16 mi
12:00 PM48 °FRain. Cloudy.5 mph98%29.93 "Hg4 mi
11:00 AM53 °FDrizzle. Cloudy.9 mph93%29.89 "Hg10 mi
10:00 AM52 °FLight rain. Cloudy.8 mph94%29.88 "Hg5 mi
9:00 AM51 °FRain. Cloudy.8 mph96%29.87 "Hg6 mi
8:00 AM52 °FLight rain. Overcast.8 mph94%29.87 "Hg7 mi
7:00 AM53 °FDrizzle. Overcast.9 mph88%29.87 "Hg6 mi
6:00 AM53 °FCool.8 mph85%29.88 "Hg31 mi
5:00 AM53 °FCool.10 mph89%29.90 "Hg6 mi
4:00 AM54 °FCool.10 mph86%29.92 "Hg28 mi
3:00 AM54 °FCool.9 mph85%29.93 "Hg31 mi
2:00 AM54 °FCool.10 mph87%29.94 "Hg31 mi
Weather by CustomWeather, © 2014

See weather overviewHow to use our weather pages